Location: Acheville
(50.3840°N, 2.8827°E)
Time: 13:06:47
(UTC+00:00)

CZ-4 R/B - Pass Details

Date: 24 October 2021
Orbit: 530 x 595 km, 97.8° (Epoch: 05 December)

Event Time Altitude Azimuth Distance (km) Brightness Sun altitude
Rises 18:01:43 0° 151° (SSE) 2,748 4.6 -13.8°
Reaches altitude 10° 18:03:51 10° 147° (SSE) 1,867 3.7 -14.2°
Maximum altitude 18:07:47 52° 71° (ENE) 723 1.5 -14.8°
Drops below altitude 10° 18:11:50 10° 355° (N) 1,917 4.1 -15.5°
Sets 18:14:03 0° 351° (N) 2,831 5.1 -15.8°
